| time (UTC) | temp F | wind direction | speed MPH | gust MPH | rain 1hr in | rain 24hr in | rain mn in | humidity % | barometer mb |
| 20260906070110 | 65 | 322 | 10.0 | 15.0 | 0.00 | 0.02 | 0.00 | 49 | 1027.7 |
| 20260906065110 | 64 | 303 | 11.0 | 14.0 | 0.00 | 0.06 | 0.00 | 51 | 1027.5 |
| 20260906064110 | 62 | 337 | 9.0 | 13.0 | 0.00 | 0.06 | 0.00 | 55 | 1027.5 |
| 20260906063110 | 60 | 341 | 3.0 | 8.0 | 0.00 | 0.06 | 0.00 | 60 | 1027.4 |
| 20260906062110 | 58 | 317 | 4.0 | 6.0 | 0.00 | 0.06 | 0.00 | 63 | 1027.4 |
| 20260906061110 | 56 | 350 | 1.0 | 2.0 | 0.00 | 0.06 | 0.00 | 67 | 1027.4 |
| 20260906060110 | 54 | 350 | 0.0 | 2.0 | 0.00 | 0.06 | 0.00 | 73 | 1027.2 |
| 20260906055110 | 53 | 350 | 0.0 | 1.0 | 0.00 | 0.08 | 0.00 | 74 | 1027.3 |
| 20260906054110 | 52 | 350 | 0.0 | 0.0 | 0.00 | 0.08 | 0.00 | 74 | 1027.2 |
| 20260906053110 | 51 | 350 | 0.0 | 1.0 | 0.00 | 0.08 | 0.00 | 72 | 1027.0 |
| 20260906052110 | 50 | 350 | 0.0 | 0.0 | 0.00 | 0.08 | 0.00 | 71 | 1026.9 |
| 20260906051110 | 49 | 350 | 0.0 | 1.0 | 0.00 | 0.08 | 0.00 | 70 | 1026.8 |
| 20260906050110 | 49 | 346 | 0.0 | 0.0 | 0.00 | 0.08 | 0.00 | 69 | 1026.7 |
| 20260906045110 | 49 | 345 | 0.0 | 0.0 | 0.00 | 0.08 | 0.00 | 68 | 1026.6 |
| 20260906044110 | 49 | 347 | 0.0 | 0.0 | 0.00 | 0.08 | 0.00 | 68 | 1026.6 |
| 20260906043110 | 49 | 347 | 0.0 | 0.0 | 0.00 | 0.08 | 0.00 | 68 | 1026.4 |
| 20260906042110 | 50 | 347 | 0.0 | 0.0 | 0.00 | 0.08 | 0.00 | 68 | 1026.3 |
| 20260906041110 | 50 | 347 | 0.0 | 0.0 | 0.00 | 0.08 | 0.00 | 67 | 1026.3 |
| 20260906040110 | 50 | 347 | 0.0 | 0.0 | 0.00 | 0.08 | 0.00 | 67 | 1026.2 |
| 20260906035110 | 51 | 347 | 0.0 | 0.0 | 0.00 | 0.08 | 0.00 | 67 | 1026.2 |
| 20260906034110 | 51 | 347 | 0.0 | 0.0 | 0.00 | 0.08 | 0.00 | 66 | 1026.3 |
| 20260906033110 | 51 | 347 | 0.0 | 1.0 | 0.00 | 0.08 | 0.00 | 66 | 1026.1 |
| 20260906032109 | 52 | 347 | 2.0 | 3.0 | 0.00 | 0.08 | 0.00 | 67 | 1026.2 |
| 20260906031110 | 53 | 347 | 0.0 | 0.0 | 0.00 | 0.08 | 0.00 | 66 | 1026.0 |
| 20260906030110 | 53 | 347 | 0.0 | 3.0 | 0.00 | 0.08 | 0.00 | 66 | 1025.9 |
| 20260906025109 | 54 | 355 | 0.0 | 0.0 | 0.00 | 0.08 | 0.00 | 66 | 1025.9 |
| 20260906024109 | 54 | 355 | 2.0 | 3.0 | 0.00 | 0.08 | 0.00 | 67 | 1025.9 |
| 20260906023109 | 55 | 355 | 1.0 | 3.0 | 0.00 | 0.08 | 0.00 | 66 | 1025.8 |
| 20260906022109 | 55 | 306 | 1.0 | 4.0 | 0.00 | 0.08 | 0.00 | 64 | 1025.9 |
| 20260906021109 | 56 | 288 | 0.0 | 0.0 | 0.00 | 0.08 | 0.00 | 63 | 1025.8 |
| 20260906020109 | 56 | 288 | 0.0 | 0.0 | 0.00 | 0.08 | 0.00 | 63 | 1025.8 |
| 20260906015109 | 56 | 288 | 0.0 | 4.0 | 0.00 | 0.08 | 0.00 | 62 | 1025.7 |
| 20260906014109 | 56 | 295 | 3.0 | 6.0 | 0.00 | 0.08 | 0.00 | 63 | 1025.6 |
| 20260906013109 | 56 | 300 | 1.0 | 3.0 | 0.00 | 0.08 | 0.00 | 64 | 1025.6 |
| 20260906012109 | 56 | 302 | 0.0 | 0.0 | 0.00 | 0.08 | 0.00 | 63 | 1025.5 |
| 20260906011109 | 57 | 297 | 0.0 | 0.0 | 0.00 | 0.08 | 0.00 | 63 | 1025.5 |
| 20260906005110 | 57 | 293 | 0.0 | 0.0 | 0.00 | 0.08 | 0.00 | 64 | 1025.2 |
| 20260906004110 | 57 | 293 | 0.0 | 0.0 | 0.00 | 0.08 | 0.00 | 62 | 1025.2 |
| 20260906003111 | 58 | 293 | 0.0 | 0.0 | 0.00 | 0.08 | 0.00 | 62 | 1025.2 |
| 20260906002110 | 58 | 294 | 0.0 | 0.0 | 0.00 | 0.08 | 0.00 | 63 | 1025.0 |
| 20260906001110 | 59 | 294 | 0.0 | 0.0 | 0.00 | 0.08 | 0.00 | 63 | 1025.1 |
| 20260906000110 | 59 | 294 | 0.0 | 0.0 | 0.00 | 0.08 | 0.00 | 61 | 1024.9 |
| 20260905235110 | 60 | 274 | 0.0 | 0.0 | 0.00 | 0.08 | 0.00 | 59 | 1024.9 |
| 20260905234110 | 61 | 325 | 0.0 | 0.0 | 0.00 | 0.08 | 0.00 | 59 | 1024.8 |
| 20260905233110 | 62 | 326 | 0.0 | 0.0 | 0.00 | 0.08 | 0.00 | 59 | 1024.4 |
| 20260905232110 | 62 | 326 | 0.0 | 0.0 | 0.00 | 0.08 | 0.00 | 59 | 1024.6 |
| 20260905231110 | 62 | 326 | 0.0 | 0.0 | 0.00 | 0.08 | 0.00 | 58 | 1024.4 |
| 20260905230110 | 63 | 319 | 0.0 | 0.0 | 0.00 | 0.08 | 0.00 | 57 | 1024.2 |
| 20260905225110 | 64 | 317 | 0.0 | 0.0 | 0.00 | 0.08 | 0.00 | 56 | 1024.2 |
| 20260905224110 | 64 | 317 | 2.0 | 3.0 | 0.00 | 0.08 | 0.00 | 55 | 1024.0 |
| 20260905223110 | 65 | 317 | 1.0 | 3.0 | 0.00 | 0.08 | 0.00 | 55 | 1024.1 |
| 20260905222110 | 65 | 326 | 3.0 | 6.0 | 0.00 | 0.08 | 0.00 | 55 | 1024.0 |
| 20260905221110 | 66 | 317 | 5.0 | 8.0 | 0.00 | 0.08 | 0.00 | 55 | 1024.0 |
| 20260905220110 | 66 | 332 | 5.0 | 11.0 | 0.00 | 0.08 | 0.00 | 55 | 1023.9 |
| 20260905215110 | 67 | 319 | 7.0 | 12.0 | 0.00 | 0.08 | 0.08 | 55 | 1024.0 |
| 20260905214113 | 67 | 348 | 7.0 | 15.0 | 0.00 | 0.08 | 0.08 | 56 | 1023.8 |
| 20260905213113 | 66 | 293 | 11.0 | 15.0 | 0.00 | 0.08 | 0.08 | 57 | 1023.6 |
| 20260905212113 | 66 | 302 | 7.0 | 11.0 | 0.00 | 0.08 | 0.08 | 57 | 1023.3 |
| 20260905211113 | 67 | 254 | 8.0 | 11.0 | 0.00 | 0.08 | 0.08 | 57 | 1023.2 |
| 20260905210113 | 67 | 258 | 8.0 | 15.0 | 0.00 | 0.08 | 0.08 | 56 | 1022.9 |
| 20260905205113 | 67 | 236 | 9.0 | 13.0 | 0.00 | 0.08 | 0.08 | 56 | 1022.9 |
| 20260905204113 | 67 | 269 | 7.0 | 12.0 | 0.00 | 0.08 | 0.08 | 56 | 1022.8 |
| 20260905203113 | 67 | 235 | 10.0 | 14.0 | 0.00 | 0.08 | 0.08 | 56 | 1022.7 |
| 20260905202113 | 66 | 248 | 11.0 | 13.0 | 0.00 | 0.08 | 0.08 | 56 | 1022.6 |
| 20260905201113 | 66 | 268 | 9.0 | 12.0 | 0.00 | 0.08 | 0.08 | 55 | 1022.6 |
| 20260905200113 | 66 | 241 | 8.0 | 11.0 | 0.00 | 0.08 | 0.08 | 55 | 1022.5 |
| 20260905195113 | 66 | 261 | 7.0 | 12.0 | 0.00 | 0.08 | 0.08 | 55 | 1022.3 |
| 20260905194113 | 66 | 246 | 7.0 | 10.0 | 0.00 | 0.08 | 0.08 | 54 | 1022.4 |
| 20260905193113 | 65 | 244 | 6.0 | 10.0 | 0.00 | 0.08 | 0.08 | 54 | 1022.3 |
| 20260905192113 | 65 | 255 | 7.0 | 9.0 | 0.00 | 0.08 | 0.08 | 52 | 1022.2 |
| 20260905191113 | 66 | 244 | 7.0 | 9.0 | 0.00 | 0.08 | 0.08 | 51 | 1022.2 |
| 20260905190113 | 66 | 240 | 6.0 | 9.0 | 0.00 | 0.08 | 0.08 | 48 | 1022.1 |
| 20260905185113 | 67 | 239 | 7.0 | 9.0 | 0.00 | 0.08 | 0.08 | 47 | 1022.0 |
| 20260905184113 | 67 | 242 | 6.0 | 8.0 | 0.00 | 0.08 | 0.08 | 45 | 1021.9 |
| 20260905183113 | 68 | 234 | 6.0 | 8.0 | 0.00 | 0.08 | 0.08 | 44 | 1021.8 |
| 20260905182113 | 69 | 239 | 5.0 | 8.0 | 0.00 | 0.08 | 0.08 | 43 | 1021.7 |
| 20260905181113 | 70 | 265 | 6.0 | 8.0 | 0.00 | 0.08 | 0.08 | 41 | 1021.7 |
| 20260905180113 | 70 | 274 | 5.0 | 8.0 | 0.00 | 0.08 | 0.08 | 40 | 1021.5 |
| 20260905175113 | 71 | 290 | 6.0 | 10.0 | 0.00 | 0.08 | 0.08 | 39 | 1021.4 |
| 20260905174113 | 72 | 277 | 6.0 | 9.0 | 0.00 | 0.08 | 0.08 | 38 | 1021.4 |
| 20260905173113 | 73 | 261 | 7.0 | 9.0 | 0.00 | 0.08 | 0.08 | 37 | 1021.3 |
| 20260905172113 | 73 | 274 | 6.0 | 10.0 | 0.00 | 0.08 | 0.08 | 35 | 1021.1 |
| 20260905171113 | 74 | 284 | 8.0 | 11.0 | 0.00 | 0.08 | 0.08 | 35 | 1021.2 |
| 20260905170113 | 75 | 273 | 10.0 | 16.0 | 0.00 | 0.08 | 0.08 | 34 | 1021.2 |
| 20260905165112 | 75 | 289 | 12.0 | 16.0 | 0.00 | 0.08 | 0.08 | 34 | 1021.0 |
| 20260905164112 | 76 | 285 | 8.0 | 14.0 | 0.00 | 0.08 | 0.08 | 34 | 1020.9 |
| 20260905163112 | 76 | 317 | 14.0 | 19.0 | 0.00 | 0.08 | 0.08 | 32 | 1020.8 |
| 20260905162112 | 77 | 306 | 14.0 | 21.0 | 0.00 | 0.08 | 0.08 | 31 | 1020.8 |
| 20260905161112 | 77 | 299 | 11.0 | 15.0 | 0.00 | 0.08 | 0.08 | 31 | 1020.8 |
| 20260905160112 | 77 | 271 | 17.0 | 22.0 | 0.00 | 0.08 | 0.08 | 30 | 1020.7 |
| 20260905155112 | 77 | 308 | 11.0 | 15.0 | 0.00 | 0.08 | 0.08 | 31 | 1020.7 |
| 20260905154112 | 77 | 265 | 9.0 | 17.0 | 0.00 | 0.08 | 0.08 | 31 | 1020.5 |
| 20260905153112 | 78 | 297 | 10.0 | 21.0 | 0.00 | 0.08 | 0.08 | 30 | 1020.5 |
| 20260905152112 | 78 | 306 | 13.0 | 19.0 | 0.00 | 0.08 | 0.08 | 32 | 1020.3 |
| 20260905151112 | 78 | 286 | 19.0 | 26.0 | 0.00 | 0.08 | 0.08 | 30 | 1020.3 |
| 20260905150112 | 78 | 248 | 16.0 | 25.0 | 0.00 | 0.08 | 0.08 | 31 | 1020.4 |
| 20260905145112 | 79 | 293 | 14.0 | 23.0 | 0.00 | 0.08 | 0.08 | 31 | 1020.4 |
| 20260905144112 | 79 | 254 | 8.0 | 21.0 | 0.00 | 0.08 | 0.08 | 32 | 1020.3 |
| 20260905143112 | 79 | 265 | 7.0 | 19.0 | 0.00 | 0.08 | 0.08 | 32 | 1020.3 |
| 20260905142112 | 79 | 278 | 10.0 | 17.0 | 0.00 | 0.08 | 0.08 | 33 | 1020.3 |
| 20260905141112 | 78 | 272 | 13.0 | 19.0 | 0.00 | 0.08 | 0.08 | 35 | 1020.3 |
| 20260905140112 | 78 | 231 | 14.0 | 18.0 | 0.00 | 0.08 | 0.08 | 42 | 1020.4 |
| 20260905135112 | 78 | 254 | 12.0 | 18.0 | 0.00 | 0.08 | 0.08 | 42 | 1020.3 |
| 20260905134112 | 78 | 238 | 13.0 | 21.0 | 0.00 | 0.08 | 0.08 | 43 | 1020.5 |
| 20260905133112 | 77 | 261 | 10.0 | 18.0 | 0.00 | 0.08 | 0.08 | 44 | 1020.6 |
| 20260905132112 | 76 | 250 | 12.0 | 18.0 | 0.00 | 0.08 | 0.08 | 47 | 1020.4 |
| 20260905131112 | 76 | 248 | 16.0 | 23.0 | 0.00 | 0.08 | 0.08 | 47 | 1020.6 |
| 20260905130112 | 76 | 252 | 8.0 | 15.0 | 0.00 | 0.08 | 0.08 | 48 | 1020.6 |
| 20260905125112 | 76 | 253 | 12.0 | 18.0 | 0.00 | 0.08 | 0.08 | 48 | 1020.6 |
| 20260905124112 | 76 | 227 | 11.0 | 20.0 | 0.00 | 0.08 | 0.08 | 46 | 1020.6 |
| 20260905123112 | 77 | 232 | 6.0 | 14.0 | 0.00 | 0.08 | 0.08 | 47 | 1020.6 |
| 20260905122112 | 76 | 235 | 9.0 | 19.0 | 0.01 | 0.08 | 0.08 | 49 | 1020.7 |
| 20260905121112 | 76 | 275 | 8.0 | 16.0 | 0.01 | 0.08 | 0.08 | 50 | 1020.8 |
| 20260905120112 | 75 | 257 | 11.0 | 18.0 | 0.01 | 0.08 | 0.08 | 50 | 1020.7 |
| 20260905115112 | 74 | 303 | 11.0 | 19.0 | 0.01 | 0.08 | 0.08 | 51 | 1020.9 |
| 20260905114112 | 74 | 257 | 8.0 | 18.0 | 0.01 | 0.08 | 0.08 | 52 | 1020.9 |
| 20260905113112 | 74 | 292 | 12.0 | 19.0 | 0.01 | 0.08 | 0.08 | 53 | 1021.0 |
| 20260905112112 | 73 | 259 | 14.0 | 22.0 | 0.00 | 0.07 | 0.07 | 55 | 1021.2 |
| 20260905111117 | 72 | 284 | 18.0 | 26.0 | 0.00 | 0.07 | 0.07 | 55 | 1021.4 |
| 20260905110111 | 71 | 292 | 15.0 | 21.0 | 0.00 | 0.07 | 0.07 | 58 | 1021.2 |
| 20260905105112 | 70 | 296 | 16.0 | 26.0 | 0.00 | 0.07 | 0.07 | 60 | 1021.2 |
| 20260905104112 | 69 | 270 | 11.0 | 19.0 | 0.00 | 0.07 | 0.07 | 61 | 1021.2 |
| 20260905103112 | 69 | 223 | 13.0 | 23.0 | 0.00 | 0.07 | 0.07 | 62 | 1021.4 |
| 20260905102111 | 68 | 275 | 11.0 | 18.0 | 0.00 | 0.07 | 0.07 | 64 | 1021.1 |
| 20260905101111 | 66 | 261 | 10.0 | 15.0 | 0.00 | 0.07 | 0.07 | 65 | 1021.1 |
| 20260905100112 | 65 | 268 | 8.0 | 22.0 | 0.00 | 0.07 | 0.07 | 67 | 1021.2 |
| 20260905095111 | 64 | 258 | 6.0 | 23.0 | 0.00 | 0.07 | 0.07 | 68 | 1021.3 |
| 20260905094111 | 63 | 277 | 12.0 | 18.0 | 0.00 | 0.07 | 0.07 | 70 | 1021.3 |
| 20260905093111 | 62 | 309 | 8.0 | 17.0 | 0.01 | 0.07 | 0.07 | 71 | 1021.4 |
| 20260905092111 | 62 | 278 | 8.0 | 12.0 | 0.02 | 0.07 | 0.07 | 70 | 1021.3 |
| 20260905091111 | 61 | 270 | 4.0 | 10.0 | 0.02 | 0.07 | 0.07 | 70 | 1021.2 |
| 20260905090111 | 61 | 284 | 6.0 | 8.0 | 0.02 | 0.07 | 0.07 | 70 | 1021.3 |
| 20260905085111 | 61 | 299 | 5.0 | 7.0 | 0.02 | 0.07 | 0.07 | 70 | 1021.4 |
| 20260905084111 | 61 | 296 | 3.0 | 8.0 | 0.02 | 0.07 | 0.07 | 70 | 1021.7 |
| 20260905083111 | 61 | 355 | 3.0 | 5.0 | 0.01 | 0.06 | 0.06 | 70 | 1021.7 |
| 20260905082111 | 60 | 254 | 3.0 | 9.0 | 0.00 | 0.06 | 0.06 | 69 | 1021.4 |
| 20260905081111 | 60 | 227 | 7.0 | 14.0 | 0.01 | 0.06 | 0.06 | 69 | 1021.6 |
| 20260905080111 | 60 | 227 | 9.0 | 12.0 | 0.03 | 0.06 | 0.06 | 69 | 1021.4 |
| 20260905075111 | 61 | 235 | 7.0 | 8.0 | 0.05 | 0.06 | 0.06 | 68 | 1021.4 |
| 20260905074111 | 61 | 225 | 6.0 | 10.0 | 0.06 | 0.06 | 0.06 | 68 | 1021.5 |
| 20260905073111 | 61 | 236 | 6.0 | 8.0 | 0.06 | 0.06 | 0.06 | 67 | 1021.5 |
| 20260905072111 | 62 | 238 | 4.0 | 5.0 | 0.06 | 0.06 | 0.06 | 66 | 1021.0 |
| 20260905071111 | 62 | 203 | 6.0 | 8.0 | 0.05 | 0.05 | 0.05 | 64 | 1021.1 |